"generation_time";"museums_public";"collections_public";"objects_public";"images_public";"resouces_public";"transcriptions_public";"museum_records_public";"collection_records_public";"object_records_public";"literature";"exhibitions_public";"appointments_public";"articles_public";"series_public";"events";"links";"institution_faq_entries";"distinct_persinst";"distinct_places";"distinct_times";"distinct_tags";"avg_text_len_public";"avg_puqi_public"
"2018-02-01";"1";"3";"31";"0";"0";"0";"0";"0";"0";"40";"0";"0";"0";"0";"3";"1457";"0";"2";"16";"25";"37";"191.6";"173.3"
"2018-03-01";"1";"3";"31";"0";"0";"0";"0";"0";"0";"40";"0";"0";"0";"0";"3";"1457";"0";"2";"16";"25";"37";"191.6";"173.3"
"2018-04-01";"1";"3";"31";"0";"0";"0";"0";"0";"0";"40";"0";"0";"0";"0";"3";"1457";"0";"2";"16";"25";"37";"191.6";"173.3"
"2018-05-01";"1";"3";"31";"0";"0";"0";"0";"0";"0";"40";"0";"0";"0";"0";"3";"1457";"0";"2";"16";"25";"37";"191.6";"173.3"
"2018-06-01";"1";"3";"31";"0";"0";"0";"0";"0";"0";"40";"0";"0";"0";"0";"3";"1457";"0";"2";"16";"25";"37";"191.6";"173.3"
"2018-07-01";"1";"7";"171";"0";"0";"0";"0";"0";"0";"419";"0";"0";"0";"0";"3";"1615";"0";"42";"46";"123";"65";"198.1";"169.5"
"2018-08-01";"2";"22";"514";"0";"2";"0";"0";"0";"0";"1016";"0";"0";"0";"0";"4";"2352";"0";"184";"119";"337";"109";"232.9";"167.8"
"2018-09-01";"2";"22";"514";"0";"2";"0";"0";"0";"0";"1016";"0";"0";"0";"0";"4";"2352";"0";"184";"119";"337";"109";"232.9";"167.8"
"2018-10-01";"3";"24";"579";"0";"2";"0";"0";"0";"0";"1082";"0";"0";"0";"0";"4";"2417";"0";"210";"124";"372";"111";"234.7";"167.4"
"2018-11-01";"3";"24";"579";"0";"2";"0";"0";"0";"0";"1082";"0";"0";"0";"0";"4";"2417";"0";"210";"124";"372";"111";"234.7";"167.4"
"2018-12-01";"3";"24";"579";"0";"2";"0";"0";"0";"0";"1082";"0";"0";"0";"0";"4";"2417";"0";"210";"124";"372";"111";"234.7";"167.4"
"2019-01-01";"3";"24";"579";"0";"2";"0";"0";"0";"0";"1082";"0";"0";"0";"0";"4";"2417";"0";"210";"124";"372";"111";"234.7";"167.4"
"2019-02-01";"3";"24";"579";"0";"2";"0";"0";"0";"0";"1082";"0";"0";"0";"0";"4";"2417";"0";"210";"124";"372";"111";"234.7";"167.4"
"2019-03-01";"3";"24";"579";"0";"2";"0";"0";"0";"0";"1082";"0";"0";"0";"0";"4";"2417";"0";"210";"124";"372";"111";"234.7";"167.4"
"2019-04-01";"3";"24";"579";"0";"2";"0";"0";"0";"0";"1082";"0";"0";"0";"0";"4";"2417";"0";"210";"124";"372";"111";"234.7";"167.4"
"2019-05-01";"3";"24";"579";"0";"2";"0";"0";"0";"0";"1082";"0";"0";"0";"0";"4";"2417";"0";"210";"124";"372";"111";"234.7";"167.4"
"2019-06-01";"3";"24";"579";"0";"2";"0";"0";"0";"0";"1082";"0";"0";"0";"0";"4";"2417";"0";"210";"124";"372";"111";"234.7";"167.4"
"2019-07-01";"3";"24";"579";"0";"2";"0";"0";"0";"0";"1082";"0";"0";"0";"0";"4";"2419";"0";"210";"124";"372";"111";"234.7";"167.4"
"2019-08-01";"3";"24";"579";"0";"2";"0";"0";"0";"0";"1082";"0";"0";"0";"0";"4";"2419";"0";"210";"124";"372";"111";"234.7";"167.4"
"2019-09-01";"3";"24";"579";"0";"2";"0";"0";"0";"0";"1082";"0";"0";"0";"0";"4";"2419";"0";"210";"124";"372";"111";"234.7";"167.4"
"2019-10-01";"3";"24";"579";"0";"2";"0";"0";"0";"0";"1082";"0";"0";"0";"0";"4";"2419";"0";"210";"124";"372";"111";"234.7";"167.4"
"2019-11-01";"3";"24";"579";"0";"2";"0";"0";"0";"0";"1082";"0";"0";"0";"0";"4";"2419";"0";"210";"124";"372";"111";"234.7";"167.4"
"2019-11-29";"3";"23";"579";"0";"1158";"0";"0";"0";"0";"1082";"0";"0";"0";"0";"582";"2419";"0";"112";"124";"369";"8";"261.7";"166.8"
"2019-11-30";"3";"23";"579";"0";"1158";"0";"0";"0";"0";"1082";"0";"0";"0";"0";"582";"2419";"0";"112";"124";"369";"8";"261.7";"166.8"
"2019-12-03";"3";"23";"579";"0";"1158";"0";"0";"0";"0";"1082";"0";"0";"0";"0";"582";"2419";"0";"112";"124";"369";"8";"261.7";"166.8"
"2019-12-04";"3";"23";"579";"0";"1158";"0";"0";"0";"0";"1082";"0";"0";"0";"0";"582";"2419";"0";"112";"124";"369";"8";"261.7";"166.8"
"2019-12-05";"3";"23";"579";"0";"1158";"0";"0";"0";"0";"1082";"0";"0";"0";"0";"582";"2419";"0";"112";"124";"369";"8";"261.7";"166.8"
"2019-12-06";"3";"23";"579";"0";"1158";"0";"0";"0";"0";"1082";"0";"0";"0";"0";"582";"2419";"0";"112";"124";"369";"12";"261.7";"166.8"
"2019-12-07";"3";"23";"579";"0";"1158";"0";"0";"0";"0";"1082";"0";"0";"0";"0";"582";"2419";"0";"112";"124";"369";"12";"261.7";"166.8"
"2019-12-08";"3";"23";"579";"0";"1158";"0";"0";"0";"0";"1082";"0";"0";"0";"0";"582";"2419";"0";"112";"124";"369";"12";"261.7";"166.8"
"2019-12-09";"3";"23";"579";"0";"1158";"0";"0";"0";"0";"1082";"0";"0";"0";"0";"582";"2419";"0";"112";"124";"369";"12";"261.7";"166.8"
"2019-12-10";"3";"23";"579";"0";"1158";"0";"0";"0";"0";"1082";"0";"0";"0";"0";"582";"2419";"0";"112";"124";"369";"12";"261.7";"166.8"
"2019-12-11";"3";"32";"1545";"0";"3089";"0";"0";"0";"0";"3421";"0";"0";"0";"21";"1487";"4798";"0";"339";"287";"825";"172";"215.8";"62.5"
"2019-12-12";"3";"32";"1544";"0";"3087";"0";"0";"0";"0";"3421";"0";"0";"0";"21";"1483";"4797";"0";"337";"287";"817";"172";"213.3";"178.0"
"2019-12-13";"3";"32";"1544";"0";"3087";"0";"0";"0";"0";"3421";"0";"0";"0";"21";"1483";"4797";"0";"337";"286";"817";"172";"213.1";"178.0"
"2019-12-14";"3";"32";"1544";"0";"3087";"0";"0";"0";"0";"3421";"0";"0";"0";"21";"1480";"4797";"0";"337";"285";"817";"168";"213.1";"178.1"
"2019-12-15";"3";"32";"1544";"0";"3087";"0";"0";"0";"0";"3421";"0";"0";"0";"21";"1479";"4797";"0";"337";"284";"817";"162";"213.1";"178.2"
"2019-12-16";"3";"32";"1544";"0";"3087";"0";"0";"0";"0";"3421";"0";"0";"0";"21";"1477";"4797";"0";"337";"282";"817";"161";"213.0";"178.2"
"2019-12-17";"3";"32";"1544";"0";"3087";"0";"0";"0";"0";"3421";"0";"0";"0";"21";"1477";"4797";"0";"337";"282";"817";"161";"213.0";"178.2"
"2019-12-18";"3";"32";"1544";"0";"3087";"0";"0";"0";"0";"3421";"0";"0";"0";"21";"1477";"4797";"0";"337";"282";"817";"161";"213.0";"178.2"
"2019-12-19";"3";"32";"1544";"0";"3087";"0";"0";"0";"0";"3421";"0";"0";"0";"21";"1477";"4797";"0";"337";"282";"817";"161";"213.0";"178.2"
"2019-12-20";"3";"32";"1544";"0";"3087";"0";"0";"0";"0";"3421";"0";"0";"0";"21";"1477";"4797";"0";"337";"282";"817";"161";"213.0";"178.2"
"2019-12-21";"3";"32";"1544";"0";"3087";"0";"0";"0";"0";"3421";"0";"0";"0";"21";"1477";"4797";"0";"337";"282";"817";"161";"213.0";"178.2"
"2019-12-22";"3";"32";"1544";"0";"3087";"0";"0";"0";"0";"3421";"0";"0";"0";"21";"1477";"4797";"0";"337";"282";"817";"161";"213.0";"178.2"
"2019-12-23";"3";"32";"1544";"0";"3087";"0";"0";"0";"0";"3421";"0";"0";"0";"21";"1477";"4797";"0";"337";"282";"817";"161";"213.0";"178.2"
"2019-12-24";"3";"32";"1544";"0";"3087";"0";"0";"0";"0";"3421";"0";"0";"0";"21";"1477";"4797";"0";"337";"282";"817";"161";"213.0";"178.2"
"2019-12-25";"3";"32";"1544";"0";"3087";"0";"0";"0";"0";"3421";"0";"0";"0";"21";"1477";"4797";"0";"337";"282";"817";"161";"213.0";"178.2"
"2019-12-26";"3";"32";"1544";"0";"3087";"0";"0";"0";"0";"3421";"0";"0";"0";"21";"1477";"4797";"0";"337";"282";"817";"161";"213.0";"178.2"
"2019-12-27";"3";"32";"1544";"0";"3087";"0";"0";"0";"0";"3421";"0";"0";"0";"21";"1477";"4797";"0";"337";"282";"817";"161";"213.0";"178.2"
"2019-12-28";"3";"32";"1544";"0";"3087";"0";"0";"0";"0";"3421";"0";"0";"0";"21";"1477";"4797";"0";"337";"282";"817";"161";"213.0";"178.2"
"2019-12-29";"3";"32";"1544";"0";"3087";"0";"0";"0";"0";"3421";"0";"0";"0";"21";"1477";"4797";"0";"337";"282";"817";"161";"213.0";"178.2"
"2019-12-30";"3";"32";"1544";"0";"3087";"0";"0";"0";"0";"3421";"0";"0";"0";"21";"1477";"4797";"0";"337";"282";"817";"161";"213.0";"178.2"
"2019-12-31";"3";"32";"1544";"0";"3087";"0";"0";"0";"0";"3421";"0";"0";"0";"21";"1477";"4797";"0";"337";"282";"817";"161";"213.0";"178.2"
"2020-01-01";"3";"32";"1544";"0";"3087";"0";"0";"0";"0";"3421";"0";"0";"0";"21";"1477";"4797";"0";"337";"282";"817";"161";"213.0";"178.2"
"2020-01-02";"3";"32";"1544";"0";"3087";"0";"0";"0";"0";"3421";"0";"0";"0";"21";"1477";"4797";"0";"337";"282";"817";"161";"213.0";"178.2"
"2020-01-03";"3";"32";"1544";"0";"3087";"0";"0";"0";"0";"3421";"0";"0";"0";"21";"1477";"4797";"0";"337";"282";"817";"161";"213.0";"178.2"
"2020-01-04";"3";"32";"1544";"0";"3087";"0";"0";"0";"0";"3421";"0";"0";"0";"21";"1477";"4797";"0";"337";"282";"817";"161";"213.0";"178.2"
"2020-01-05";"3";"32";"1544";"0";"3087";"0";"0";"0";"0";"3421";"0";"0";"0";"21";"1477";"4797";"0";"337";"282";"817";"161";"213.0";"178.2"
"2020-01-06";"3";"32";"1544";"0";"3087";"0";"0";"0";"0";"3421";"0";"0";"0";"21";"1477";"4797";"0";"337";"282";"817";"161";"213.0";"178.2"
"2020-01-07";"3";"32";"1544";"0";"3087";"0";"0";"0";"0";"3421";"0";"0";"0";"21";"1477";"4797";"0";"337";"282";"817";"161";"213.0";"178.2"
"2020-01-08";"3";"32";"1544";"0";"3087";"0";"0";"0";"0";"3421";"0";"0";"0";"21";"1477";"4797";"0";"337";"282";"817";"161";"213.0";"178.2"
"2020-01-09";"3";"32";"1544";"0";"3087";"0";"0";"0";"0";"3421";"0";"0";"0";"21";"1477";"4797";"0";"337";"282";"817";"161";"213.0";"178.2"
"2020-01-10";"3";"32";"1544";"0";"3087";"0";"0";"0";"0";"3421";"0";"0";"0";"21";"1477";"4797";"0";"337";"282";"817";"161";"213.0";"178.2"
"2020-01-11";"3";"32";"1544";"0";"3087";"0";"0";"0";"0";"3421";"0";"0";"0";"21";"1477";"4797";"0";"337";"282";"817";"161";"213.0";"178.2"
"2020-01-12";"3";"32";"1544";"0";"3087";"0";"0";"0";"0";"3421";"0";"0";"0";"21";"1477";"4797";"0";"337";"282";"817";"161";"213.0";"178.2"
"2020-01-13";"3";"32";"1544";"0";"3087";"0";"0";"0";"0";"3421";"0";"0";"0";"21";"1477";"4797";"0";"337";"282";"817";"161";"213.0";"178.2"
"2020-01-14";"3";"32";"1544";"0";"3087";"0";"0";"0";"0";"3421";"0";"0";"0";"21";"1477";"4797";"0";"337";"282";"817";"161";"213.0";"178.2"
"2020-01-15";"3";"32";"1544";"0";"3087";"0";"0";"0";"0";"3421";"0";"0";"0";"21";"1477";"4797";"0";"337";"282";"817";"161";"213.0";"178.2"
"2020-01-16";"3";"32";"1544";"0";"3087";"0";"0";"0";"0";"3421";"0";"0";"0";"21";"1477";"4797";"0";"337";"282";"817";"161";"213.0";"178.2"
"2020-01-17";"3";"32";"1544";"0";"3087";"0";"0";"0";"0";"3421";"0";"0";"0";"21";"1477";"4797";"0";"337";"282";"817";"161";"213.0";"178.2"
"2020-01-18";"3";"32";"1544";"0";"3087";"0";"0";"0";"0";"3421";"0";"0";"0";"21";"1477";"4797";"0";"337";"282";"817";"161";"213.0";"178.2"
"2020-01-19";"3";"32";"1544";"0";"3087";"0";"0";"0";"0";"3421";"0";"0";"0";"21";"1477";"4797";"0";"337";"282";"817";"161";"213.0";"178.2"
"2020-01-20";"3";"32";"1544";"0";"3087";"0";"0";"0";"0";"3421";"0";"0";"0";"21";"1477";"4797";"0";"337";"282";"817";"161";"213.0";"178.2"
"2020-01-21";"3";"32";"1544";"0";"3087";"0";"0";"0";"0";"3421";"0";"0";"0";"21";"1477";"4797";"0";"337";"282";"817";"161";"213.0";"178.2"
"2020-01-22";"3";"32";"1544";"0";"3087";"0";"0";"0";"0";"3421";"0";"0";"0";"21";"1477";"4797";"0";"337";"282";"817";"161";"213.0";"178.2"
"2020-01-23";"3";"32";"1544";"0";"3087";"0";"0";"0";"0";"3421";"0";"0";"0";"21";"1477";"4797";"0";"337";"282";"817";"161";"213.0";"178.2"
"2020-01-24";"3";"32";"1544";"0";"3087";"0";"0";"0";"0";"3421";"0";"0";"0";"21";"1477";"4797";"0";"337";"282";"817";"161";"213.0";"178.2"
"2020-01-25";"3";"32";"1544";"0";"3087";"0";"0";"0";"0";"3421";"0";"0";"0";"21";"1477";"4797";"0";"337";"282";"817";"161";"213.0";"178.2"
"2020-01-26";"3";"32";"1544";"0";"3087";"0";"0";"0";"0";"3421";"0";"0";"0";"21";"1477";"4797";"0";"337";"282";"817";"161";"213.0";"178.2"
"2020-01-27";"3";"32";"1544";"0";"3087";"0";"0";"0";"0";"3421";"0";"0";"0";"21";"1477";"4797";"0";"337";"282";"817";"161";"213.0";"178.2"
"2020-01-28";"3";"32";"1544";"0";"3087";"0";"0";"0";"0";"3421";"0";"0";"0";"21";"1477";"4797";"0";"337";"282";"817";"161";"213.0";"178.2"
"2020-01-29";"3";"32";"1544";"0";"3087";"0";"0";"0";"0";"3421";"0";"0";"0";"21";"1477";"4797";"0";"337";"282";"817";"161";"213.0";"178.2"
"2020-01-30";"3";"32";"1544";"0";"3087";"0";"0";"0";"0";"3421";"0";"0";"0";"21";"1477";"4797";"0";"337";"282";"817";"161";"213.0";"178.2"
"2020-01-31";"3";"32";"1544";"0";"3087";"0";"0";"0";"0";"3421";"0";"0";"0";"21";"1477";"4797";"0";"337";"282";"817";"161";"204.9";"178.2"
"2020-02-01";"3";"32";"1544";"0";"3087";"0";"0";"0";"0";"3421";"0";"0";"0";"21";"1477";"4797";"0";"337";"282";"817";"161";"204.9";"178.2"
"2020-02-02";"3";"32";"1544";"0";"3087";"0";"0";"0";"0";"3421";"0";"0";"0";"21";"1477";"4797";"0";"337";"282";"817";"161";"204.9";"178.2"
"2020-02-03";"3";"32";"1544";"0";"3087";"0";"0";"0";"0";"3421";"0";"0";"0";"21";"1477";"4797";"0";"337";"282";"817";"161";"204.9";"178.2"
"2020-02-04";"3";"32";"1544";"0";"3087";"0";"0";"0";"0";"3421";"0";"0";"0";"21";"1477";"4797";"0";"337";"282";"817";"161";"204.9";"178.2"
"2020-02-05";"3";"32";"1544";"0";"3087";"0";"0";"0";"0";"3421";"0";"0";"0";"21";"1477";"4797";"0";"337";"282";"817";"161";"204.9";"178.2"
"2020-02-06";"3";"32";"1544";"0";"3087";"0";"0";"0";"0";"3421";"0";"0";"0";"21";"1477";"4797";"0";"337";"282";"817";"161";"204.9";"178.2"
"2020-02-07";"3";"32";"1544";"0";"3087";"0";"0";"0";"0";"3421";"0";"0";"0";"21";"1477";"4797";"0";"337";"282";"817";"161";"204.9";"178.2"
"2020-02-08";"3";"32";"1544";"0";"3087";"0";"0";"0";"0";"3421";"0";"0";"0";"21";"1477";"4797";"0";"337";"282";"817";"161";"204.9";"178.2"
"2020-02-09";"3";"32";"1544";"0";"3087";"0";"0";"0";"0";"3421";"0";"0";"0";"21";"1477";"4797";"0";"337";"282";"817";"161";"204.9";"178.2"
"2020-02-13";"3";"32";"1544";"0";"3087";"0";"0";"0";"0";"3421";"0";"0";"0";"21";"1477";"4797";"0";"337";"282";"817";"161";"204.9";"178.2"
"2020-02-15";"3";"32";"1544";"0";"3087";"0";"0";"0";"0";"3421";"0";"0";"0";"21";"1477";"4797";"0";"337";"282";"817";"161";"204.9";"178.3"
"2020-02-16";"3";"32";"1544";"0";"3087";"0";"0";"0";"0";"3421";"0";"0";"0";"21";"1477";"4797";"0";"337";"282";"817";"161";"204.9";"178.3"
"2020-02-17";"3";"32";"1544";"0";"3087";"0";"0";"0";"0";"3421";"0";"0";"0";"21";"1477";"4797";"0";"337";"282";"817";"161";"204.9";"178.3"
"2020-02-18";"3";"32";"1544";"0";"3087";"0";"0";"0";"0";"3421";"0";"0";"0";"21";"1477";"4797";"0";"337";"282";"817";"161";"204.9";"178.3"
"2020-02-19";"3";"32";"1544";"0";"3087";"0";"0";"0";"0";"3421";"0";"0";"0";"21";"1477";"4797";"0";"337";"282";"817";"161";"204.9";"178.3"
"2020-02-20";"3";"32";"1544";"0";"3087";"0";"0";"0";"0";"3421";"0";"0";"0";"21";"1477";"4797";"0";"337";"282";"817";"161";"204.9";"178.3"
"2020-02-21";"3";"32";"1544";"0";"3087";"0";"0";"0";"0";"3421";"0";"0";"0";"21";"1477";"4797";"0";"337";"282";"817";"161";"204.9";"178.3"
"2020-02-22";"3";"32";"1544";"0";"3087";"0";"0";"0";"0";"3421";"0";"0";"0";"21";"1477";"4797";"0";"337";"282";"817";"161";"204.9";"178.3"
"2020-02-23";"3";"32";"1544";"0";"3087";"0";"0";"0";"0";"3421";"0";"0";"0";"21";"1477";"4797";"0";"337";"282";"817";"161";"204.9";"178.3"
"2020-02-24";"3";"32";"1544";"0";"3087";"0";"0";"0";"0";"3421";"0";"0";"0";"21";"1477";"4797";"0";"337";"282";"817";"161";"204.9";"178.3"
"2020-02-25";"3";"32";"1544";"0";"3087";"0";"0";"0";"0";"3421";"0";"0";"0";"21";"1477";"4797";"0";"337";"282";"817";"161";"204.9";"178.3"
"2020-02-26";"3";"32";"1544";"0";"3087";"0";"0";"0";"0";"3421";"0";"0";"0";"21";"1477";"4797";"0";"337";"282";"817";"161";"204.9";"178.3"
"2020-02-27";"3";"32";"1544";"0";"3087";"0";"0";"0";"0";"3421";"0";"0";"0";"21";"1477";"4797";"0";"337";"282";"817";"161";"204.9";"178.3"
"2020-02-28";"3";"32";"1544";"0";"3087";"0";"0";"0";"0";"3421";"0";"0";"0";"21";"1477";"4797";"0";"337";"282";"817";"161";"204.9";"178.3"
"2020-03-01";"3";"32";"1544";"0";"3087";"0";"0";"0";"0";"3421";"0";"0";"0";"21";"1477";"4797";"0";"337";"282";"817";"161";"204.9";"178.3"
"2020-03-03";"3";"32";"1544";"0";"3087";"0";"0";"0";"0";"3421";"0";"0";"0";"21";"1477";"4797";"0";"337";"282";"817";"161";"204.9";"178.3"
"2020-03-04";"3";"32";"1544";"0";"3087";"0";"0";"0";"0";"3421";"0";"0";"0";"21";"1477";"4797";"0";"337";"282";"817";"161";"204.9";"178.3"
"2020-03-05";"3";"32";"1544";"0";"3087";"0";"0";"0";"0";"3421";"0";"0";"0";"21";"1477";"4797";"0";"337";"282";"817";"161";"204.9";"178.3"
"2020-03-06";"3";"32";"1544";"0";"3087";"0";"0";"0";"0";"3421";"0";"0";"0";"21";"1477";"4797";"0";"337";"282";"817";"161";"204.9";"178.3"
"2020-03-07";"3";"32";"1544";"0";"3087";"0";"0";"0";"0";"3421";"0";"0";"0";"21";"1477";"4797";"0";"337";"282";"817";"161";"204.9";"178.3"
"2020-03-08";"3";"32";"1544";"0";"3087";"0";"0";"0";"0";"3421";"0";"0";"0";"21";"1477";"4797";"0";"337";"282";"817";"161";"204.9";"178.3"
"2020-03-09";"3";"32";"1544";"0";"3087";"0";"0";"0";"0";"3421";"0";"0";"0";"21";"1477";"4797";"0";"337";"282";"817";"161";"204.9";"178.3"
"2020-03-10";"3";"32";"1544";"0";"3087";"0";"0";"0";"0";"3421";"0";"0";"0";"21";"1477";"4797";"0";"337";"282";"817";"161";"204.9";"178.3"
"2020-03-11";"3";"32";"1544";"0";"3087";"0";"0";"0";"0";"3421";"0";"0";"0";"21";"1477";"4797";"0";"337";"282";"817";"161";"204.9";"178.3"
"2020-03-12";"3";"32";"1544";"0";"3087";"0";"0";"0";"0";"3421";"0";"0";"0";"21";"1477";"4797";"0";"337";"282";"817";"161";"204.9";"178.3"
"2020-03-13";"3";"32";"1544";"0";"3087";"0";"0";"0";"0";"3421";"0";"0";"0";"21";"1477";"4797";"0";"337";"282";"817";"161";"204.9";"178.3"
"2020-03-14";"3";"32";"1544";"0";"3087";"0";"0";"0";"0";"3421";"0";"0";"0";"21";"1477";"4797";"0";"337";"282";"817";"161";"204.9";"178.3"
"2020-03-15";"3";"32";"1544";"0";"3087";"0";"0";"0";"0";"3421";"0";"0";"0";"21";"1477";"4797";"0";"337";"282";"817";"161";"204.9";"178.3"
"2020-03-16";"3";"32";"1544";"0";"3087";"0";"0";"0";"0";"3421";"0";"0";"0";"21";"1477";"4797";"0";"337";"282";"817";"161";"204.9";"178.3"
"2020-03-18";"3";"32";"1544";"0";"3087";"0";"0";"0";"0";"3421";"0";"0";"0";"21";"1477";"4797";"0";"337";"282";"817";"161";"204.9";"178.3"
"2020-03-20";"3";"32";"1544";"0";"3087";"0";"0";"0";"0";"3421";"0";"0";"0";"21";"1477";"4797";"0";"337";"282";"817";"161";"204.9";"178.3"
"2020-03-23";"3";"32";"1544";"0";"3087";"0";"0";"0";"0";"3421";"0";"0";"0";"21";"1477";"4797";"0";"337";"282";"817";"161";"204.9";"178.3"
"2020-03-24";"3";"32";"1544";"0";"3087";"0";"0";"0";"0";"3421";"0";"0";"0";"21";"1477";"4797";"0";"337";"282";"817";"161";"204.9";"178.3"
"2020-03-25";"3";"32";"1544";"0";"3087";"0";"0";"0";"0";"3421";"0";"0";"0";"21";"1477";"4797";"0";"337";"282";"817";"161";"204.9";"178.3"
"2020-03-26";"3";"32";"1544";"0";"3087";"0";"0";"0";"0";"3421";"0";"0";"0";"21";"1477";"4797";"0";"337";"282";"817";"161";"204.9";"178.3"
"2020-03-28";"3";"32";"1544";"0";"3087";"0";"0";"0";"0";"3421";"0";"0";"0";"21";"1477";"4797";"0";"337";"282";"817";"160";"204.9";"178.3"
"2020-03-30";"3";"32";"1544";"0";"3087";"0";"0";"0";"0";"3421";"0";"0";"0";"21";"1477";"4797";"0";"337";"282";"817";"160";"204.9";"178.3"
"2020-03-31";"3";"32";"1544";"0";"3087";"0";"0";"0";"0";"3421";"0";"0";"0";"21";"1477";"4797";"0";"337";"282";"817";"160";"204.9";"178.3"
"2020-04-01";"3";"32";"1544";"0";"3087";"0";"0";"0";"0";"3413";"0";"0";"0";"21";"1477";"4797";"0";"337";"282";"817";"160";"204.9";"178.3"
"2020-04-02";"3";"32";"1544";"0";"3087";"0";"0";"0";"0";"3413";"0";"0";"0";"21";"1477";"4797";"0";"337";"282";"817";"160";"204.9";"178.3"
"2020-04-03";"3";"32";"1544";"0";"3087";"0";"0";"0";"0";"3413";"0";"0";"0";"21";"1477";"4797";"0";"337";"282";"817";"160";"204.9";"178.3"
"2020-04-04";"3";"32";"1544";"0";"3087";"0";"0";"0";"0";"3413";"0";"0";"0";"21";"1477";"4797";"0";"337";"282";"817";"160";"204.9";"178.3"
"2020-04-05";"3";"32";"1544";"0";"3087";"0";"0";"0";"0";"3413";"0";"0";"0";"21";"1477";"4797";"0";"337";"282";"817";"160";"204.9";"178.3"
"2020-04-06";"3";"32";"1544";"0";"3087";"0";"0";"0";"0";"3413";"0";"0";"0";"21";"1477";"4797";"0";"337";"282";"817";"160";"204.9";"178.3"
"2020-04-07";"3";"32";"1544";"0";"3087";"0";"0";"0";"0";"3413";"0";"0";"0";"21";"1477";"4797";"0";"337";"282";"817";"160";"204.9";"178.3"
"2020-04-08";"3";"32";"1544";"0";"3087";"0";"0";"0";"0";"3413";"0";"0";"0";"21";"1477";"4797";"0";"337";"282";"817";"160";"204.9";"178.3"
"2020-04-09";"3";"32";"1544";"0";"3087";"0";"0";"0";"0";"3413";"0";"0";"0";"21";"1477";"4797";"0";"337";"282";"817";"160";"204.9";"178.3"
"2020-04-10";"3";"32";"1544";"0";"3087";"0";"0";"0";"0";"3413";"0";"0";"0";"21";"1477";"4797";"0";"337";"282";"817";"159";"204.9";"178.3"
"2020-04-11";"3";"32";"1544";"0";"3087";"0";"0";"0";"0";"3413";"0";"0";"0";"21";"1477";"4797";"0";"337";"282";"817";"159";"204.9";"178.3"
"2020-04-12";"3";"32";"1544";"0";"3087";"0";"0";"0";"0";"3413";"0";"0";"0";"21";"1477";"4797";"0";"337";"282";"817";"159";"204.9";"178.3"
"2020-04-13";"3";"32";"1544";"0";"3087";"0";"0";"0";"0";"3413";"0";"0";"0";"21";"1477";"4797";"0";"337";"282";"817";"159";"204.9";"178.3"
"2020-04-14";"3";"32";"1544";"0";"3087";"0";"0";"0";"0";"3413";"0";"0";"0";"21";"1477";"4797";"0";"337";"282";"817";"159";"204.9";"178.3"
"2020-04-15";"3";"32";"1544";"0";"3087";"0";"0";"0";"0";"3413";"0";"0";"0";"21";"1477";"4797";"0";"337";"282";"817";"158";"204.9";"178.3"
"2020-04-16";"3";"32";"1544";"0";"3087";"0";"0";"0";"0";"3413";"0";"0";"0";"21";"1477";"4797";"0";"337";"282";"817";"158";"204.9";"178.3"
"2020-04-17";"3";"32";"1544";"0";"3087";"0";"0";"0";"0";"3413";"0";"0";"0";"21";"1477";"4797";"0";"337";"282";"817";"158";"204.9";"178.3"
"2020-04-18";"3";"32";"1544";"0";"3087";"0";"0";"0";"0";"3413";"0";"0";"0";"21";"1477";"4797";"0";"337";"282";"817";"158";"204.9";"178.3"
"2020-04-19";"3";"32";"1544";"0";"3087";"0";"0";"0";"0";"3413";"0";"0";"0";"21";"1477";"4797";"0";"337";"282";"817";"158";"204.9";"178.3"
"2020-04-20";"3";"32";"1544";"0";"3087";"0";"0";"0";"0";"3413";"0";"0";"0";"21";"1477";"4797";"0";"337";"282";"817";"158";"204.9";"178.3"
"2020-04-21";"3";"32";"1544";"0";"3087";"0";"0";"0";"0";"3413";"0";"0";"0";"21";"1477";"4797";"0";"337";"282";"817";"158";"204.9";"178.3"
"2020-04-22";"3";"32";"1544";"0";"3087";"0";"0";"0";"0";"3413";"0";"0";"0";"21";"1477";"4797";"0";"337";"282";"817";"158";"204.9";"178.3"
"2020-04-23";"3";"32";"1544";"0";"3087";"0";"0";"0";"0";"3413";"0";"0";"0";"21";"1477";"4797";"0";"337";"282";"817";"158";"204.9";"178.3"
"2020-04-25";"3";"32";"1544";"0";"3087";"0";"0";"0";"0";"3413";"0";"0";"0";"21";"1477";"4797";"0";"337";"282";"817";"158";"204.9";"178.3"
"2020-04-26";"3";"32";"1544";"0";"3087";"0";"0";"0";"0";"3413";"0";"0";"0";"21";"1477";"4797";"0";"337";"282";"817";"158";"204.9";"178.3"
"2020-04-27";"3";"32";"1544";"0";"3087";"0";"0";"0";"0";"3413";"0";"0";"0";"21";"1477";"4797";"0";"337";"282";"817";"158";"204.9";"178.3"
"2020-04-28";"3";"32";"1544";"0";"3087";"0";"0";"0";"0";"3413";"0";"0";"0";"21";"1477";"4797";"0";"337";"282";"817";"158";"204.9";"178.3"
"2020-04-29";"3";"32";"1544";"0";"3087";"0";"0";"0";"0";"3413";"0";"0";"0";"21";"1477";"4797";"0";"337";"282";"817";"158";"204.9";"178.3"
"2020-04-30";"3";"32";"1544";"0";"3087";"0";"0";"0";"0";"3413";"0";"0";"0";"21";"1477";"4797";"0";"337";"282";"817";"158";"204.9";"178.3"
"2020-05-01";"3";"32";"1544";"0";"3087";"0";"0";"0";"0";"3413";"0";"0";"0";"21";"1477";"4797";"0";"337";"282";"817";"158";"204.9";"178.3"
"2020-05-02";"3";"32";"1544";"0";"3087";"0";"0";"0";"0";"3413";"0";"0";"0";"21";"1477";"4797";"0";"337";"282";"817";"158";"204.9";"178.3"
"2020-05-03";"3";"32";"1544";"0";"3087";"0";"0";"0";"0";"3413";"0";"0";"0";"21";"1477";"4797";"0";"337";"282";"817";"158";"204.9";"178.3"
"2020-05-04";"3";"32";"1544";"0";"3087";"0";"0";"0";"0";"3413";"0";"0";"0";"21";"1477";"4797";"0";"337";"282";"817";"158";"204.9";"178.3"
"2020-05-05";"3";"32";"1544";"0";"3087";"0";"0";"0";"0";"3413";"0";"0";"0";"21";"3291";"4797";"0";"337";"282";"817";"158";"204.9";"178.3"
"2020-05-06";"3";"32";"1544";"0";"3087";"0";"0";"0";"0";"3413";"0";"0";"0";"21";"3730";"4797";"0";"337";"282";"817";"158";"204.9";"178.3"
"2020-05-07";"3";"32";"1544";"0";"3087";"0";"0";"0";"0";"3413";"0";"0";"0";"21";"3730";"4797";"0";"337";"282";"817";"158";"204.9";"178.3"
"2020-05-08";"3";"32";"1544";"0";"3087";"0";"0";"0";"0";"3413";"0";"0";"0";"21";"3730";"4797";"0";"337";"282";"817";"158";"204.9";"178.3"
"2020-05-09";"3";"32";"1544";"0";"3087";"0";"0";"0";"0";"3413";"0";"0";"0";"21";"3730";"4797";"0";"337";"282";"817";"158";"204.9";"178.3"
"2020-05-10";"3";"32";"1544";"0";"3087";"0";"0";"0";"0";"3413";"0";"0";"0";"21";"3730";"4797";"0";"337";"282";"817";"158";"204.9";"178.3"
"2020-05-11";"3";"32";"1544";"0";"3087";"0";"0";"0";"0";"3413";"0";"0";"0";"21";"3730";"4797";"0";"337";"282";"817";"158";"204.9";"178.3"